EW8549 Weather Reports


time (UTC)temp
C
wind
direction
speed
KPH
gust
KPH
rain 1hr
cm
rain 24hr
cm
rain mn
cm
humidity
%
barometer
mb
20260906094517 24 131 0.0 0.0 0.00 0.00 0.00 1 1009.5
20260906093009 24 131 0.0 0.0 0.00 0.00 0.00 1 1009.2
20260906091508 24 131 0.0 0.0 0.00 0.00 0.00 1 1009.2
20260906090107 24 131 0.0 0.0 0.00 0.00 0.00 1 1009.1
20260906084555 24 131 0.0 0.0 0.00 0.00 0.00 1 1009.1
20260906083051 24 131 0.0 0.0 0.00 0.00 0.00 1 1009.2
20260906081551 24 131 0.0 0.0 0.00 0.00 0.00 1 1009.1
20260906080045 24 131 0.0 0.0 0.00 0.00 0.00 1 1009.3
20260906074553 24 131 0.0 0.0 0.00 0.00 0.00 1 1009.4
20260906073035 25 131 0.0 0.0 0.00 0.00 0.00 1 1009.6
20260906071530 25 224 0.0 0.0 0.00 0.00 0.00 1 1009.6
20260906070026 25 224 0.0 0.0 0.00 0.00 0.00 1 1009.4
20260906064522 25 224 0.0 0.0 0.00 0.00 0.00 1 1009.4
20260906063018 25 224 0.0 0.0 0.00 0.00 0.00 1 1009.4
20260906061514 25 224 0.0 0.0 0.00 0.00 0.00 1 1009.3
20260906060016 25 238 0.0 0.0 0.00 0.00 0.00 1 1009.4
20260906054505 25 238 0.0 0.0 0.00 0.00 0.00 1 1009.6
20260906053101 25 238 0.0 0.0 0.00 0.00 0.00 1 1009.9
20260906051603 25 238 0.0 0.0 0.00 0.00 0.00 1 1009.7
20260906050055 25 238 0.0 0.0 0.00 0.00 0.00 1 1009.7
20260906044551 25 342 0.0 0.0 0.00 0.00 0.00 1 1009.7
20260906043043 25 342 0.0 0.0 0.00 0.00 0.00 1 1009.8
20260906041542 25 342 0.0 0.0 0.00 0.00 0.00 1 1009.8
20260906040034 25 342 0.0 0.0 0.00 0.00 0.00 1 1009.7
20260906034530 26 342 0.0 0.0 0.00 0.00 0.00 1 1009.7
20260906033038 26 342 0.0 0.0 0.00 0.00 0.00 1 1009.6
20260906031523 27 342 0.0 0.0 0.00 0.00 0.00 15 1009.7
20260906030016 28 342 0.0 0.0 0.00 0.00 0.00 30 1009.6
20260906024513 28 205 0.0 0.0 0.00 0.00 0.00 46 1009.7
20260906023007 28 205 0.0 0.0 0.00 0.00 0.00 51 1009.3
20260906021503 29 205 0.0 0.0 0.00 0.00 0.00 54 1009.1
20260906020104 30 231 0.0 0.0 0.00 0.00 0.00 56 1008.9
20260906014555 30 236 0.0 0.0 0.00 0.00 0.00 58 1008.7
20260906013050 30 157 0.0 0.0 0.00 0.00 0.00 60 1008.6
20260906011547 30 257 0.0 0.0 0.00 0.00 0.00 61 1008.4
20260906010041 31 187 0.0 0.0 0.00 0.00 0.00 61 1008.2
20260906004537 31 249 0.0 0.0 0.00 0.00 0.00 61 1008.0
20260906003033 32 233 0.0 0.0 0.00 0.00 0.00 60 1008.0
20260906001528 32 137 0.0 0.0 0.00 0.00 0.00 60 1007.8
20260906000023 34 137 0.0 0.0 0.00 0.00 0.00 55 1007.7
20260905234519 36 137 0.0 0.0 0.00 0.00 0.00 47 1007.8
20260905233015 36 127 0.0 0.0 0.00 0.00 0.00 45 1007.7
20260905231511 36 117 0.0 0.0 0.00 0.00 0.00 43 1007.6
20260905230006 36 94 0.0 0.0 0.00 0.00 0.00 43 1007.6
20260905224504 37 100 0.0 0.0 0.00 0.00 0.00 42 1007.6
20260905223058 37 83 0.0 11.3 0.00 0.00 0.00 43 1007.6
20260905221601 37 111 0.0 0.0 0.00 0.00 0.00 40 1007.8
20260905214545 37 119 0.0 0.0 0.00 0.00 0.00 41 1007.9
20260905213040 37 61 0.0 0.0 0.00 0.00 0.00 42 1008.0
20260905211535 37 98 0.0 0.0 0.00 0.00 0.00 43 1008.1
20260905210030 37 290 0.0 0.0 0.00 0.00 0.00 41 1008.3
20260905204528 36 96 0.0 1.6 0.00 0.00 0.00 42 1008.5
20260905203024 37 108 0.0 0.0 0.00 0.00 0.00 42 1008.7
20260905201517 37 88 0.0 14.5 0.00 0.00 0.00 44 1009.0
20260905200012 36 103 0.0 19.3 0.00 0.00 0.00 42 1009.0
20260905194508 36 153 0.0 11.3 0.00 0.00 0.00 41 1009.2
20260905193004 37 105 0.0 11.3 0.00 0.00 0.00 42 1009.3
20260905191559 37 59 0.0 3.2 0.00 0.00 0.00 41 1009.5
20260905190055 37 109 0.0 1.6 0.00 0.00 0.00 44 1009.7
20260905184550 36 322 0.0 1.6 0.00 0.00 0.00 44 1010.0
20260905183045 36 75 0.0 0.0 0.00 0.00 0.00 45 1010.4
20260905181559 36 104 0.0 6.4 0.00 0.00 0.00 46 1010.4